Time,TemperatureF,DewpointF,PressureIn,WindDirection,WindDirectionDegrees,WindSpeedMPH,WindSpeedGustMPH,Humidity,HourlyPrecipIn,Conditions,Clouds,dailyrainin,SolarRadiationWatts/m^2,SoftwareType,DateUTC
2013-04-10 00:00:00,73.9,67.1,30.10,East,92,7.0,9.0,79,0.00,,,0.00,0.0,meteohub,2013-04-10 04:00:00,
2013-04-10 00:01:00,73.9,67.1,30.10,ESE,107,7.0,9.0,79,0.00,,,0.00,0.0,meteohub,2013-04-10 04:01:00,
2013-04-10 00:06:00,73.8,66.9,30.10,East,93,5.0,9.0,79,0.00,,,0.00,0.0,meteohub,2013-04-10 04:06:00,
2013-04-10 00:11:00,73.8,66.9,30.10,East,94,6.0,9.0,79,0.00,,,0.00,0.0,meteohub,2013-04-10 04:11:00,
2013-04-10 00:16:00,73.8,66.9,30.10,ESE,108,5.0,9.0,79,0.00,,,0.00,0.0,meteohub,2013-04-10 04:16:00,
2013-04-10 00:21:00,73.8,66.4,30.10,ESE,108,5.0,8.0,78,0.00,,,0.00,0.0,meteohub,2013-04-10 04:21:00,
2013-04-10 00:26:00,73.9,66.6,30.10,ENE,69,0.0,8.0,78,0.00,,,0.00,0.0,meteohub,2013-04-10 04:26:00,
2013-04-10 00:32:00,73.9,66.2,30.11,East,79,2.0,8.0,77,0.00,,,0.00,0.0,meteohub,2013-04-10 04:32:00,
2013-04-10 00:37:00,73.9,66.2,30.11,East,94,2.0,8.0,77,0.00,,,0.00,0.0,meteohub,2013-04-10 04:37:00,
2013-04-10 00:42:00,73.8,66.4,30.10,East,101,6.0,6.0,78,0.00,,,0.00,0.0,meteohub,2013-04-10 04:42:00,
2013-04-10 00:47:00,73.9,66.6,30.11,East,96,2.0,7.0,78,0.00,,,0.00,0.0,meteohub,2013-04-10 04:47:00,
2013-04-10 00:52:00,73.9,66.6,30.10,ESE,105,4.0,7.0,78,0.00,,,0.00,0.0,meteohub,2013-04-10 04:52:00,
2013-04-10 00:57:00,73.8,66.4,30.10,ESE,107,4.0,7.0,78,0.00,,,0.00,0.0,meteohub,2013-04-10 04:57:00,
2013-04-10 01:02:00,73.8,66.9,30.10,East,96,3.0,6.0,79,0.00,,,0.00,0.0,meteohub,2013-04-10 05:02:00,
2013-04-10 01:07:00,73.8,66.9,30.09,East,92,3.0,7.0,79,0.00,,,0.00,0.0,meteohub,2013-04-10 05:07:00,
2013-04-10 01:12:00,73.6,67.1,30.09,ESE,103,2.0,7.0,80,0.00,,,0.00,0.0,meteohub,2013-04-10 05:12:00,
2013-04-10 01:18:00,73.4,66.9,30.09,ESE,113,7.0,7.0,80,0.00,,,0.00,0.0,meteohub,2013-04-10 05:18:00,
2013-04-10 01:23:00,73.4,66.9,30.09,ESE,104,3.0,8.0,80,0.00,,,0.00,0.0,meteohub,2013-04-10 05:23:00,
2013-04-10 01:28:00,73.4,66.9,30.09,East,84,3.0,8.0,80,0.00,,,0.00,0.0,meteohub,2013-04-10 05:28:00,
2013-04-10 01:33:00,73.2,67.1,30.08,East,100,1.0,8.0,81,0.00,,,0.00,0.0,meteohub,2013-04-10 05:33:00,
2013-04-10 01:38:00,73.2,67.1,30.08,East,89,6.0,8.0,81,0.00,,,0.00,0.0,meteohub,2013-04-10 05:38:00,
2013-04-10 01:43:00,73.4,67.3,30.08,ESE,105,3.0,9.0,81,0.00,,,0.00,0.0,meteohub,2013-04-10 05:43:00,
2013-04-10 01:48:00,73.6,67.1,30.08,East,98,6.0,9.0,80,0.00,,,0.00,0.0,meteohub,2013-04-10 05:48:00,
2013-04-10 01:53:00,73.6,67.1,30.08,East,96,2.0,9.0,80,0.00,,,0.00,0.0,meteohub,2013-04-10 05:53:00,
2013-04-10 01:58:00,73.6,67.1,30.08,East,99,2.0,8.0,80,0.00,,,0.00,0.0,meteohub,2013-04-10 05:58:00,
2013-04-10 02:03:00,73.8,67.3,30.08,East,95,2.0,8.0,80,0.00,,,0.00,0.0,meteohub,2013-04-10 06:03:00,
2013-04-10 02:08:00,73.6,67.5,30.08,East,101,2.0,7.0,81,0.00,,,0.00,0.0,meteohub,2013-04-10 06:08:00,
2013-04-10 02:13:00,73.4,67.3,30.08,ESE,115,2.0,7.0,81,0.00,,,0.00,0.0,meteohub,2013-04-10 06:13:00,
2013-04-10 02:18:00,73.2,67.1,30.08,East,92,1.0,7.0,81,0.00,,,0.00,0.0,meteohub,2013-04-10 06:18:00,
2013-04-10 02:23:00,73.0,67.3,30.07,East,82,3.0,3.0,82,0.00,,,0.00,0.0,meteohub,2013-04-10 06:23:00,
2013-04-10 02:28:00,73.0,67.3,30.07,East,87,2.0,5.0,82,0.00,,,0.00,0.0,meteohub,2013-04-10 06:28:00,
2013-04-10 02:33:00,73.0,67.3,30.07,East,97,3.0,5.0,82,0.00,,,0.00,0.0,meteohub,2013-04-10 06:33:00,
2013-04-10 02:39:00,72.9,67.1,30.06,ESE,102,4.0,5.0,82,0.00,,,0.00,0.0,meteohub,2013-04-10 06:39:00,
2013-04-10 02:44:00,72.7,67.3,30.06,East,88,2.0,5.0,83,0.00,,,0.00,0.0,meteohub,2013-04-10 06:44:00,
2013-04-10 02:49:00,72.7,67.3,30.06,East,87,2.0,5.0,83,0.00,,,0.00,0.0,meteohub,2013-04-10 06:49:00,
2013-04-10 02:54:00,72.7,67.3,30.06,East,91,0.0,5.0,83,0.00,,,0.00,0.0,meteohub,2013-04-10 06:54:00,
2013-04-10 02:59:00,72.5,67.1,30.06,ESE,105,2.0,5.0,83,0.00,,,0.00,0.0,meteohub,2013-04-10 06:59:00,
2013-04-10 03:04:00,72.3,66.9,30.06,East,84,2.0,5.0,83,0.00,,,0.00,0.0,meteohub,2013-04-10 07:04:00,
2013-04-10 03:09:00,72.5,67.1,30.06,East,95,2.0,5.0,83,0.00,,,0.00,0.0,meteohub,2013-04-10 07:09:00,
2013-04-10 03:14:00,72.7,67.3,30.06,East,85,1.0,5.0,83,0.00,,,0.00,0.0,meteohub,2013-04-10 07:14:00,
2013-04-10 03:19:00,72.7,67.3,30.06,ESE,111,2.0,6.0,83,0.00,,,0.00,0.0,meteohub,2013-04-10 07:19:00,
2013-04-10 03:24:00,72.7,67.3,30.06,East,98,1.0,6.0,83,0.00,,,0.00,0.0,meteohub,2013-04-10 07:24:00,
2013-04-10 03:29:00,72.7,67.3,30.05,East,85,0.0,6.0,83,0.00,,,0.00,0.0,meteohub,2013-04-10 07:29:00,
2013-04-10 03:34:00,72.7,67.3,30.06,East,82,1.0,6.0,83,0.00,,,0.00,0.0,meteohub,2013-04-10 07:34:00,
2013-04-10 03:39:00,72.7,67.3,30.06,East,98,3.0,6.0,83,0.00,,,0.00,0.0,meteohub,2013-04-10 07:39:00,
2013-04-10 03:44:00,72.7,67.6,30.05,East,98,3.0,6.0,84,0.00,,,0.00,0.0,meteohub,2013-04-10 07:44:00,
2013-04-10 03:49:00,72.9,67.8,30.05,ESE,105,3.0,6.0,84,0.00,,,0.00,0.0,meteohub,2013-04-10 07:49:00,
2013-04-10 03:54:00,72.9,67.8,30.05,East,92,3.0,6.0,84,0.00,,,0.00,0.0,meteohub,2013-04-10 07:54:00,
2013-04-10 03:59:00,72.9,67.8,30.05,East,90,3.0,6.0,84,0.00,,,0.00,0.0,meteohub,2013-04-10 07:59:00,
2013-04-10 04:04:00,72.9,67.5,30.05,East,84,2.0,5.0,83,0.00,,,0.00,0.0,meteohub,2013-04-10 08:04:00,
2013-04-10 04:09:00,72.9,67.5,30.05,ESE,109,3.0,5.0,83,0.00,,,0.00,0.0,meteohub,2013-04-10 08:09:00,
2013-04-10 04:14:00,73.0,67.3,30.05,East,96,3.0,5.0,82,0.00,,,0.00,0.0,meteohub,2013-04-10 08:14:00,
2013-04-10 04:19:00,73.0,67.3,30.05,East,96,3.0,5.0,82,0.00,,,0.00,0.0,meteohub,2013-04-10 08:19:00,
2013-04-10 04:24:00,73.0,67.3,30.05,East,92,1.0,5.0,82,0.00,,,0.00,0.0,meteohub,2013-04-10 08:24:00,
2013-04-10 04:29:00,73.0,67.3,30.05,East,92,0.0,5.0,82,0.00,,,0.00,0.0,meteohub,2013-04-10 08:29:00,
2013-04-10 04:34:00,73.0,67.3,30.05,East,93,1.0,5.0,82,0.00,,,0.00,0.0,meteohub,2013-04-10 08:34:00,
2013-04-10 04:39:00,72.9,67.1,30.05,East,96,2.0,3.0,82,0.00,,,0.00,0.0,meteohub,2013-04-10 08:39:00,
2013-04-10 04:44:00,72.9,67.1,30.06,East,96,0.0,5.0,82,0.00,,,0.00,0.0,meteohub,2013-04-10 08:44:00,
2013-04-10 04:49:00,73.0,67.3,30.06,East,96,2.0,5.0,82,0.00,,,0.00,0.0,meteohub,2013-04-10 08:49:00,
2013-04-10 04:54:00,72.9,67.1,30.05,East,101,2.0,5.0,82,0.00,,,0.00,0.0,meteohub,2013-04-10 08:54:00,
2013-04-10 04:59:00,72.7,66.9,30.05,East,101,2.0,3.0,82,0.00,,,0.00,0.0,meteohub,2013-04-10 08:59:00,
2013-04-10 05:05:00,72.7,66.9,30.05,East,94,2.0,3.0,82,0.00,,,0.00,0.0,meteohub,2013-04-10 09:05:00,
2013-04-10 05:10:00,72.9,67.1,30.05,East,98,1.0,5.0,82,0.00,,,0.00,0.0,meteohub,2013-04-10 09:10:00,
2013-04-10 05:15:00,72.9,67.1,30.05,East,97,2.0,5.0,82,0.00,,,0.00,0.0,meteohub,2013-04-10 09:15:00,
2013-04-10 05:20:00,73.0,66.9,30.06,East,100,0.0,5.0,81,0.00,,,0.00,0.0,meteohub,2013-04-10 09:20:00,
2013-04-10 05:25:00,73.0,66.9,30.06,East,99,1.0,5.0,81,0.00,,,0.00,0.0,meteohub,2013-04-10 09:25:00,
2013-04-10 05:30:00,73.2,67.1,30.06,East,99,1.0,3.0,81,0.00,,,0.00,0.0,meteohub,2013-04-10 09:30:00,
2013-04-10 05:35:00,72.9,66.7,30.06,East,98,1.0,3.0,81,0.00,,,0.00,0.0,meteohub,2013-04-10 09:35:00,
2013-04-10 05:40:00,72.9,67.1,30.05,East,97,1.0,3.0,82,0.00,,,0.00,0.0,meteohub,2013-04-10 09:40:00,
2013-04-10 05:45:00,72.7,66.9,30.04,East,92,3.0,3.0,82,0.00,,,0.00,0.0,meteohub,2013-04-10 09:45:00,
2013-04-10 05:50:00,72.7,67.3,30.04,East,95,2.0,5.0,83,0.00,,,0.00,0.0,meteohub,2013-04-10 09:50:00,
2013-04-10 05:55:00,72.7,67.3,30.04,East,96,3.0,6.0,83,0.00,,,0.00,0.0,meteohub,2013-04-10 09:55:00,
2013-04-10 06:00:00,72.9,67.5,30.05,East,92,2.0,6.0,83,0.00,,,0.00,0.0,meteohub,2013-04-10 10:00:00,
2013-04-10 06:05:00,72.9,67.5,30.04,East,86,3.0,7.0,83,0.00,,,0.00,0.0,meteohub,2013-04-10 10:05:00,
2013-04-10 06:10:00,73.0,67.6,30.05,East,86,2.0,7.0,83,0.00,,,0.00,0.0,meteohub,2013-04-10 10:10:00,
2013-04-10 06:15:00,73.0,67.6,30.05,ENE,63,3.0,6.0,83,0.00,,,0.00,0.0,meteohub,2013-04-10 10:15:00,
2013-04-10 06:20:00,73.2,67.8,30.05,East,83,2.0,6.0,83,0.00,,,0.00,0.0,meteohub,2013-04-10 10:20:00,
2013-04-10 06:25:00,73.2,67.8,30.05,East,92,3.0,5.0,83,0.00,,,0.00,0.0,meteohub,2013-04-10 10:25:00,
2013-04-10 06:30:00,73.2,67.8,30.05,East,97,2.0,6.0,83,0.00,,,0.00,0.0,meteohub,2013-04-10 10:30:00,
2013-04-10 06:35:00,73.4,68.0,30.05,East,94,1.0,7.0,83,0.00,,,0.00,0.0,meteohub,2013-04-10 10:35:00,
2013-04-10 06:40:00,73.4,68.0,30.05,East,83,2.0,7.0,83,0.00,,,0.00,0.0,meteohub,2013-04-10 10:40:00,
2013-04-10 06:45:00,73.4,68.2,30.05,ENE,60,2.0,7.0,84,0.00,,,0.00,0.0,meteohub,2013-04-10 10:45:00,
2013-04-10 06:50:00,73.6,68.4,30.05,East,95,3.0,7.0,84,0.00,,,0.00,0.0,meteohub,2013-04-10 10:50:00,
2013-04-10 06:55:00,73.6,68.2,30.06,ESE,104,3.0,7.0,83,0.00,,,0.00,0.0,meteohub,2013-04-10 10:55:00,
2013-04-10 07:00:00,73.6,68.2,30.06,East,83,3.0,7.0,83,0.00,,,0.00,0.0,meteohub,2013-04-10 11:00:00,
2013-04-10 07:05:00,73.8,68.0,30.06,East,82,3.0,9.0,82,0.00,,,0.00,0.0,meteohub,2013-04-10 11:05:00,
2013-04-10 07:10:00,73.8,68.0,30.06,East,79,2.0,9.0,82,0.00,,,0.00,5.0,meteohub,2013-04-10 11:10:00,
2013-04-10 07:15:00,73.9,68.2,30.06,East,101,6.0,9.0,82,0.00,,,0.00,11.0,meteohub,2013-04-10 11:15:00,
2013-04-10 07:20:00,73.9,67.8,30.06,East,96,6.0,11.0,81,0.00,,,0.00,12.0,meteohub,2013-04-10 11:20:00,
2013-04-10 07:25:00,73.9,67.8,30.06,East,81,1.0,11.0,81,0.00,,,0.00,14.0,meteohub,2013-04-10 11:25:00,
2013-04-10 07:30:00,73.9,67.8,30.06,East,81,5.0,11.0,81,0.00,,,0.00,18.0,meteohub,2013-04-10 11:30:00,
2013-04-10 07:35:00,73.9,67.8,30.06,ENE,78,2.0,9.0,81,0.00,,,0.00,21.0,meteohub,2013-04-10 11:35:00,
2013-04-10 07:40:00,73.9,68.2,30.06,East,84,5.0,9.0,82,0.00,,,0.00,25.0,meteohub,2013-04-10 11:40:00,
2013-04-10 07:45:00,74.1,68.0,30.07,East,82,3.0,9.0,81,0.00,,,0.00,37.0,meteohub,2013-04-10 11:45:00,
2013-04-10 07:50:00,74.5,68.2,30.07,East,86,2.0,9.0,81,0.00,,,0.00,86.0,meteohub,2013-04-10 11:50:00,
2013-04-10 07:55:00,74.7,68.4,30.07,ENE,71,7.0,9.0,81,0.00,,,0.00,67.0,meteohub,2013-04-10 11:55:00,
2013-04-10 08:00:00,74.8,68.5,30.07,East,93,6.0,9.0,81,0.00,,,0.00,88.0,meteohub,2013-04-10 12:00:00,
2013-04-10 08:05:00,75.0,68.7,30.07,East,86,8.0,9.0,81,0.00,,,0.00,91.0,meteohub,2013-04-10 12:05:00,
2013-04-10 08:10:00,75.0,68.7,30.07,East,87,5.0,9.0,81,0.00,,,0.00,123.0,meteohub,2013-04-10 12:10:00,
2013-04-10 08:15:00,75.4,69.1,30.07,East,99,7.0,10.0,81,0.00,,,0.00,100.0,meteohub,2013-04-10 12:15:00,
2013-04-10 08:20:00,75.6,69.3,30.07,East,101,6.0,10.0,81,0.00,,,0.00,90.0,meteohub,2013-04-10 12:20:00,
2013-04-10 08:25:00,75.6,69.3,30.07,East,99,8.0,10.0,81,0.00,,,0.00,174.0,meteohub,2013-04-10 12:25:00,
2013-04-10 08:30:00,75.7,69.4,30.07,East,96,7.0,10.0,81,0.00,,,0.00,86.0,meteohub,2013-04-10 12:30:00,
2013-04-10 08:35:00,75.7,69.4,30.06,ENE,70,9.0,12.0,81,0.00,,,0.00,176.0,meteohub,2013-04-10 12:35:00,
2013-04-10 08:40:00,75.9,69.6,30.07,ESE,102,7.0,12.0,81,0.00,,,0.00,243.0,meteohub,2013-04-10 12:40:00,
2013-04-10 08:45:00,76.5,70.2,30.06,ESE,109,11.0,12.0,81,0.00,,,0.00,341.0,meteohub,2013-04-10 12:45:00,
2013-04-10 08:50:00,76.8,70.2,30.06,East,81,3.0,15.0,80,0.00,,,0.00,227.0,meteohub,2013-04-10 12:50:00,
2013-04-10 08:55:00,77.4,70.3,30.06,East,99,11.0,15.0,79,0.00,,,0.00,272.0,meteohub,2013-04-10 12:55:00,
2013-04-10 09:00:00,77.2,70.2,30.06,East,85,8.0,16.0,79,0.00,,,0.00,258.0,meteohub,2013-04-10 13:00:00,
2013-04-10 09:05:00,77.0,70.0,30.06,East,94,8.0,16.0,79,0.00,,,0.00,142.0,meteohub,2013-04-10 13:05:00,
2013-04-10 09:10:00,76.8,70.2,30.06,ESE,112,8.0,16.0,80,0.00,,,0.00,258.0,meteohub,2013-04-10 13:10:00,
2013-04-10 09:15:00,77.2,70.5,30.07,East,85,8.0,16.0,80,0.00,,,0.00,281.0,meteohub,2013-04-10 13:15:00,
2013-04-10 09:21:00,77.9,71.2,30.07,East,90,10.0,15.0,80,0.00,,,0.00,199.0,meteohub,2013-04-10 13:21:00,
2013-04-10 09:26:00,77.7,70.7,30.07,ESE,119,9.0,15.0,79,0.00,,,0.00,179.0,meteohub,2013-04-10 13:26:00,
2013-04-10 09:31:00,78.1,71.1,30.08,East,97,11.0,15.0,79,0.00,,,0.00,615.0,meteohub,2013-04-10 13:31:00,
2013-04-10 09:36:00,78.1,71.1,30.08,East,92,13.0,15.0,79,0.00,,,0.00,204.0,meteohub,2013-04-10 13:36:00,
2013-04-10 09:41:00,77.5,70.9,30.08,ESE,103,8.0,14.0,80,0.00,,,0.00,178.0,meteohub,2013-04-10 13:41:00,
2013-04-10 09:46:00,77.5,70.9,30.07,East,97,9.0,14.0,80,0.00,,,0.00,223.0,meteohub,2013-04-10 13:46:00,
2013-04-10 09:51:00,78.1,71.1,30.07,ESE,107,9.0,17.0,79,0.00,,,0.00,206.0,meteohub,2013-04-10 13:51:00,
2013-04-10 09:56:00,77.7,71.1,30.08,East,98,7.0,17.0,80,0.00,,,0.00,229.0,meteohub,2013-04-10 13:56:00,
2013-04-10 10:01:00,77.9,71.2,30.08,East,92,8.0,17.0,80,0.00,,,0.00,301.0,meteohub,2013-04-10 14:01:00,
2013-04-10 10:06:00,77.7,71.1,30.08,East,101,13.0,16.0,80,0.00,,,0.00,316.0,meteohub,2013-04-10 14:06:00,
2013-04-10 10:11:00,78.8,71.8,30.08,SE,132,8.0,16.0,79,0.00,,,0.00,316.0,meteohub,2013-04-10 14:11:00,
2013-04-10 10:17:00,79.0,71.6,30.08,ESE,102,16.0,16.0,78,0.00,,,0.00,213.0,meteohub,2013-04-10 14:17:00,
2013-04-10 10:22:00,78.4,71.4,30.08,East,96,8.0,17.0,79,0.00,,,0.00,246.0,meteohub,2013-04-10 14:22:00,
2013-04-10 10:27:00,79.5,71.6,30.08,ESE,102,12.0,17.0,77,0.00,,,0.00,821.0,meteohub,2013-04-10 14:27:00,
2013-04-10 10:32:00,80.1,72.1,30.08,East,83,11.0,17.0,77,0.00,,,0.00,308.0,meteohub,2013-04-10 14:32:00,
2013-04-10 10:37:00,79.5,71.6,30.08,SE,124,10.0,17.0,77,0.00,,,0.00,309.0,meteohub,2013-04-10 14:37:00,
2013-04-10 10:42:00,80.6,72.7,30.08,ESE,103,9.0,16.0,77,0.00,,,0.00,842.0,meteohub,2013-04-10 14:42:00,
2013-04-10 10:47:00,80.6,72.7,30.08,East,90,10.0,21.0,77,0.00,,,0.00,821.0,meteohub,2013-04-10 14:47:00,